Skip Page Navigation
NASA JPL Caltech
NASA Logo - Jet Propulsion Laboratory + View the NASA Portal
+ Near-Earth Object (NEO) Program
Search JPL
JPL Home Earth Solar System Stars & Galaxies Technology
JPL Solar System Dynamics
BODIES ORBITS EPHEMERIDES TOOLS PHYSICAL DATA DISCOVERY FAQ SITE MAP
JPL Small-Body Database Browser
Search: [ help ]  
132798 Kurti (2002 PU167)
Classification: Main-belt Asteroid          SPK-ID: 2132798
Ephemeris | Orbit Diagram | Orbital Elements | Physical Parameters | Discovery Circumstances | Close-Approach Data ]

[ show orbit diagram ]
Orbital Elements at Epoch 2456800.5 (2014-May-23.0) TDB
Reference: JPL 1 (heliocentric ecliptic J2000)
 Element Value Uncertainty (1-sigma)   Units 
e .09108370205848038 1.4994e-07  
a 2.569659914276472 7.5413e-08 AU
q 2.335605776252894 4.3097e-07 AU
i 4.611566396092795 2.0116e-05 deg
node 131.1310111947368 0.00011145 deg
peri 117.6465415404682 0.00017853 deg
M 4.033639786659356 0.00015492 deg
tp 2456783.641982015198
(2014-May-06.14198202)
0.00064701 JED
period 1504.568279646772
4.12
6.6233e-05
1.813e-07
d
yr
n .2392712945433871 1.0533e-08 deg/d
Q 2.803714052300051 8.2282e-08 AU
  Orbit Determination Parameters
   # obs. used (total)      99  
   data-arc span      3895 days (10.66 yr)  
   first obs. used      2002-07-04  
   last obs. used      2013-03-03  
   planetary ephem.      DE431  
   SB-pert. ephem.      SB431-BIG16  
   condition code      0  
   fit RMS      .52405  
   data source      ORB  
   producer      Otto Matic  
   solution date      2013-Aug-07 05:30:03  

Additional Information
 Earth MOID = 1.32581 AU 
 T_jup = 3.420 
[ show covariance matrix ]

Ephemeris | Orbit Diagram | Orbital Elements | Physical Parameters | Discovery Circumstances | Close-Approach Data ]

Physical Parameter Table
Parameter Symbol Value Units Sigma Reference Notes
absolute magnitude H 16.5 mag n/a MPO257614  

132798 Kürti           Discovered 2002 Aug. 8 by NEAT at Palomar.
Stefan Kürti (b. 1960) is a Slovakian amateur astronomer with a focus on minor planets. Among his discoveries are two near-earth objects. The name was suggested by M. Langbroek.
NOTE: some special characters may not display properly (any characters within {} are an attempt to place the proper accent above a character)
Reference: 20081113/MPCPages.arcLast Updated: 2008-11-17

[ show close-approach data ]
Ephemeris | Orbit Diagram | Orbital Elements | Physical Parameters | Discovery Circumstances | Close-Approach Data ]
ABOUT SSD CREDITS/AWARDS PRIVACY/COPYRIGHT GLOSSARY LINKS
FirstGov 2014-Apr-23 14:31 UT
(server date/time)  
NASA Home Page
Site Manager:   Donald K. Yeomans
Webmaster  Alan B. Chamberlin